Change the Weather History Date:

Wednesday, February 6, 2013

  Actual Average Record
Temperature  
Mean Temperature 24 °F -  
Max Temperature 37 °F 26 °F 44 °F (2005)
Min Temperature 10 °F 10 °F -11 °F (2014)
Degree Days  
Heating Degree Days 42    
Moisture  
Dew Point 25 °F    
Average Humidity 92    
Maximum Humidity 100    
Minimum Humidity 80    
Precipitation  
Precipitation 0.00 in - - ()
Sea Level Pressure  
Sea Level Pressure 29.97 in    
Wind  
Wind Speed 5 mph (SSE)    
Max Wind Speed 18 mph    
Max Gust Speed 24 mph    
Visibility 7 miles    
Events Fog    
Averages and records for this station are not official NWS values.
T = Trace of Precipitation, MM = Missing Value Source: NWS Daily Summary

Daily Weather History Graph

Daily Weather History Graph

Search for Another Location

Airport or City:

Trip Planner

Search our weather history database for the weather conditions in past years. The results will help you decide how hot, cold, wet, or windy it might be!

Date:

Astronomy

Feb. 06, 2013 Rise Set
Actual Time 7:23 AM CST 5:31 PM CST
Civil Twilight 6:53 AM CST 6:01 PM CST
Nautical Twilight 6:19 AM CST 6:36 PM CST
Astronomical Twilight 5:46 AM CST 7:09 PM CST
Moon 4:11 AM CST (2/6) 1:47 PM CST (2/6)
Length of Visible Light 11h 08m
Length of Day
10h 07m
Waning Crescent, 17% of the Moon is Illuminated
Feb 6
Waning Crescent
Feb 10
New
Feb 17
First Quarter
Feb 25
Full
Mar 4
Last Quarter

Hourly Weather History & Observations

Time (CST) Temp. Windchill Dew Point Humidity Pressure Visibility Wind Dir Wind Speed Gust Speed Precip Events Conditions
12:10 AM 12.2 °F - 12.2 °F 100% 30.07 in 7.0 mi Calm Calm - N/A   Clear
12:30 AM 12.2 °F - 12.2 °F 100% 30.07 in 7.0 mi Calm Calm - N/A   Clear
12:50 AM 12.2 °F - 10.4 °F 92% 30.07 in 7.0 mi Calm Calm - N/A   Clear
1:10 AM 12.2 °F 6.1 °F 10.4 °F 92% 30.06 in 7.0 mi SW 3.5 mph - N/A   Clear
1:30 AM 10.4 °F - 10.4 °F 100% 30.07 in 7.0 mi Calm Calm - N/A   Mostly Cloudy
1:50 AM 10.4 °F - 10.4 °F 100% 30.07 in 7.0 mi Calm Calm - N/A   Overcast
2:29 AM 12.2 °F - 10.4 °F 92% 30.07 in 0.5 mi Calm Calm - N/A Fog Light Freezing Fog
2:50 AM 12.2 °F - 12.2 °F 100% 30.06 in 0.5 mi Calm Calm - N/A Fog Light Freezing Fog
3:10 AM 14.0 °F 8.2 °F 12.2 °F 93% 30.06 in 1.0 mi ESE 3.5 mph - N/A   Overcast
3:30 AM 12.2 °F 4.3 °F 12.2 °F 100% 30.04 in 0.5 mi ESE 4.6 mph - N/A Fog Light Freezing Fog
3:50 AM 12.2 °F 4.3 °F 12.2 °F 100% 30.04 in 0.2 mi SE 4.6 mph - N/A Fog Light Freezing Fog
4:10 AM 14.0 °F 5.1 °F 12.2 °F 93% 30.06 in - South 5.8 mph - N/A   Overcast
4:30 AM 14.0 °F 5.1 °F 12.2 °F 93% 30.07 in - South 5.8 mph - N/A   Overcast
4:50 AM 14.0 °F - 12.2 °F 93% 30.07 in - Calm Calm - N/A   Overcast
5:10 AM 15.8 °F 8.6 °F 14.0 °F 93% 30.07 in - SSW 4.6 mph - N/A   Overcast
5:30 AM - - - N/A% 30.07 in - SSW 3.5 mph - N/A   Unknown
6:10 AM 17.6 °F - 15.8 °F 93% 30.06 in - Calm Calm - N/A   Overcast
6:30 AM 17.6 °F 12.3 °F 17.6 °F 100% 30.05 in - SSE 3.5 mph - N/A   Overcast
6:50 AM 17.6 °F 12.3 °F 17.6 °F 100% 30.05 in - South 3.5 mph - N/A   Unknown
7:10 AM 17.6 °F 9.3 °F 17.6 °F 100% 30.04 in - SSE 5.8 mph - N/A   Unknown
7:30 AM 19.4 °F 14.3 °F 17.6 °F 93% 30.03 in 5.0 mi South 3.5 mph - N/A   Scattered Clouds
7:49 AM 19.4 °F 14.3 °F 17.6 °F 93% 30.05 in 5.0 mi South 3.5 mph - N/A   Scattered Clouds
8:10 AM 19.4 °F 14.3 °F 19.4 °F 100% 30.05 in 5.0 mi South 3.5 mph - N/A   Scattered Clouds
8:30 AM 19.4 °F 12.8 °F 19.4 °F 100% 30.04 in 5.0 mi SSE 4.6 mph - N/A   Scattered Clouds
8:49 AM 21.2 °F 14.9 °F 21.2 °F 100% 30.04 in 5.0 mi SSE 4.6 mph - N/A   Scattered Clouds
9:10 AM 21.2 °F 12.6 °F 21.2 °F 100% 30.03 in 5.0 mi SSE 6.9 mph - N/A   Clear
9:30 AM 21.2 °F 11.7 °F 21.2 °F 100% 30.03 in 5.0 mi SSE 8.1 mph - N/A   Clear
9:49 AM 24.8 °F 15.3 °F 21.2 °F 86% 30.02 in 7.0 mi SSE 9.2 mph - N/A   Clear
10:30 AM 26.6 °F 16.8 °F 21.2 °F 80% 30.02 in 7.0 mi SSE 10.4 mph - N/A   Clear
10:49 AM 26.6 °F 16.2 °F 23.0 °F 86% 30.02 in 7.0 mi SSE 11.5 mph - N/A   Clear
11:10 AM 26.6 °F 16.2 °F 23.0 °F 86% 30.01 in 10.0 mi SSE 11.5 mph - N/A   Scattered Clouds
11:30 AM 28.4 °F 17.5 °F 23.0 °F 80% 30.00 in 10.0 mi SSE 13.8 mph - N/A   Scattered Clouds
11:49 AM 28.4 °F 17.0 °F 23.0 °F 80% 29.98 in 10.0 mi SSE 15.0 mph - N/A   Scattered Clouds
12:10 PM 30.2 °F 19.3 °F 24.8 °F 80% 29.97 in 10.0 mi SSE 15.0 mph - N/A   Mostly Cloudy
12:30 PM 30.2 °F 19.3 °F 24.8 °F 80% 29.95 in 10.0 mi SSE 15.0 mph - N/A   Scattered Clouds
12:49 PM 32.0 °F 22.1 °F 26.6 °F 80% 29.94 in 10.0 mi SSE 13.8 mph - N/A   Mostly Cloudy
1:10 PM 32.0 °F 20.5 °F 26.6 °F 80% 29.92 in 10.0 mi SSE 18.4 mph - N/A   Scattered Clouds
1:30 PM 33.8 °F 23.2 °F 28.4 °F 81% 29.90 in 10.0 mi SSE 17.3 mph 20.7 mph N/A   Scattered Clouds
1:49 PM 33.8 °F 23.5 °F 28.4 °F 81% 29.89 in 10.0 mi South 16.1 mph 24.2 mph N/A   Clear
2:10 PM 33.8 °F 23.2 °F 30.2 °F 87% 29.87 in 10.0 mi SSE 17.3 mph 23.0 mph N/A   Scattered Clouds
2:30 PM 35.6 °F 26.2 °F 30.2 °F 81% 29.86 in 10.0 mi SSE 15.0 mph 24.2 mph N/A   Mostly Cloudy
2:49 PM 35.6 °F 25.5 °F 30.2 °F 81% 29.86 in 10.0 mi SSE 17.3 mph 20.7 mph N/A   Mostly Cloudy
3:10 PM 33.8 °F 24.3 °F 33.8 °F 100% 29.86 in 10.0 mi South 13.8 mph - N/A   Scattered Clouds
3:30 PM 35.6 °F 28.0 °F 33.8 °F 93% 29.87 in 10.0 mi South 10.4 mph 17.3 mph N/A   Clear
3:49 PM 35.6 °F 29.2 °F 33.8 °F 93% 29.88 in 10.0 mi South 8.1 mph - N/A   Clear
4:10 PM 37.4 °F 32.8 °F 33.8 °F 87% 29.90 in 10.0 mi SSW 5.8 mph - N/A   Scattered Clouds
4:49 PM 37.4 °F 32.1 °F 33.8 °F 87% 29.89 in 10.0 mi South 6.9 mph - N/A   Scattered Clouds
5:10 PM 37.4 °F 32.1 °F 33.8 °F 87% 29.89 in 10.0 mi South 6.9 mph - N/A   Clear
5:30 PM 37.4 °F 32.8 °F 33.8 °F 87% 29.90 in 7.0 mi South 5.8 mph - N/A   Scattered Clouds
5:50 PM 35.6 °F 29.2 °F 33.8 °F 93% 29.90 in 10.0 mi SSE 8.1 mph - N/A   Clear
6:10 PM 37.4 °F 30.8 °F 33.8 °F 87% 29.90 in - South 9.2 mph - N/A   Unknown
6:29 PM 37.4 °F - 33.8 °F 87% 29.91 in 10.0 mi Calm Calm - N/A   Scattered Clouds
6:50 PM 37.4 °F 32.1 °F 33.8 °F 87% 29.91 in 10.0 mi South 6.9 mph - N/A   Mostly Cloudy
7:10 PM 35.6 °F 29.2 °F 33.8 °F 93% 29.91 in 7.0 mi SSE 8.1 mph - N/A   Scattered Clouds
7:29 PM 35.6 °F 29.9 °F 33.8 °F 93% 29.92 in 7.0 mi South 6.9 mph - N/A   Clear
7:50 PM 35.6 °F 29.9 °F 33.8 °F 93% 29.92 in 7.0 mi South 6.9 mph - N/A   Scattered Clouds
8:10 PM 35.6 °F 29.2 °F 33.8 °F 93% 29.92 in 7.0 mi South 8.1 mph - N/A   Scattered Clouds
8:29 PM 35.6 °F 30.7 °F 33.8 °F 93% 29.92 in 7.0 mi South 5.8 mph - N/A   Scattered Clouds
8:50 PM 35.6 °F 29.2 °F 33.8 °F 93% 29.91 in 7.0 mi South 8.1 mph - N/A   Scattered Clouds
9:10 PM 35.6 °F 29.2 °F 33.8 °F 93% 29.92 in 7.0 mi South 8.1 mph - N/A   Clear
9:29 PM 37.4 °F 32.8 °F 33.8 °F 87% 29.92 in 7.0 mi South 5.8 mph - N/A   Clear
9:50 PM 37.4 °F 33.8 °F 33.8 °F 87% 29.92 in 7.0 mi South 4.6 mph - N/A   Clear
10:10 PM 35.6 °F 32.8 °F 33.8 °F 93% 29.92 in 7.0 mi SSE 3.5 mph - N/A   Clear
10:29 PM 35.6 °F 31.7 °F 33.8 °F 93% 29.92 in 7.0 mi South 4.6 mph - N/A   Clear
10:50 PM 35.6 °F 31.7 °F 33.8 °F 93% 29.92 in 7.0 mi South 4.6 mph - N/A   Clear
11:10 PM 33.8 °F 29.6 °F 33.8 °F 100% 29.92 in 5.0 mi SSE 4.6 mph - N/A   Clear
11:29 PM 33.8 °F - 33.8 °F 100% 29.92 in 5.0 mi Calm Calm - N/A   Clear
11:50 PM 33.8 °F 30.8 °F 33.8 °F 100% 29.92 in 4.0 mi SSE 3.5 mph - N/A   Clear